GRBBETA

Last updated on Sun Oct 26 2025 00:03:58 GMT+0000 (Coordinated Universal Time)

1 60237U 24128C 25298.49647501 .00005226 00000+0 37756-3 0 9992 2 60237 61.9910 318.2350 0057082 86.2910 274.4707 15.04062423 70933
UTC large
Height (km)
Speed (km/s)
/
Latitude / Longitude
Inclination (degrees)
Orbital Period (minutes)
Azimuth
Elevation
Range (km)
Doppler Factor

Next 0 passes for location: London (51.5072 / 0.1276)

Sorry there are no passes over London.